TimeCDT,TemperatureF,Dew PointF,Humidity,Sea Level PressureIn,VisibilityMPH,Wind Direction,Wind SpeedMPH,Gust SpeedMPH,PrecipitationIn,Events,Conditions,WindDirDegrees,DateUTC
12:32 AM,73.4,73.4,100,29.80,1.8,SSW,4.6,-,N/A,,Overcast,210,2013-06-27 05:32:00
12:43 AM,73.4,73.4,100,29.80,0.5,SSW,4.6,-,N/A,Fog,Fog,210,2013-06-27 05:43:00
12:53 AM,73.0,73.0,100,29.77,0.5,SSW,6.9,-,0.00,Fog-Rain,Light Rain,210,2013-06-27 05:53:00
1:03 AM,73.4,73.4,100,29.79,0.2,SW,6.9,-,0.00,Fog,Fog,220,2013-06-27 06:03:00
1:53 AM,73.0,73.0,100,29.77,0.5,West,5.8,-,0.00,Fog,Fog,260,2013-06-27 06:53:00
2:08 AM,73.4,73.4,100,29.78,0.5,West,6.9,-,N/A,Fog,Fog,260,2013-06-27 07:08:00
2:30 AM,73.4,73.4,100,29.79,1.0,West,4.6,-,N/A,,Mist,270,2013-06-27 07:30:00
2:47 AM,73.4,73.4,100,29.79,2.0,West,4.6,-,0.02,Rain,Light Rain,260,2013-06-27 07:47:00
2:53 AM,73.9,73.0,97,29.78,2.5,West,4.6,-,0.02,Rain,Light Rain,270,2013-06-27 07:53:00
3:20 AM,73.4,73.4,100,29.79,1.5,WSW,4.6,-,0.00,,Overcast,250,2013-06-27 08:20:00
3:26 AM,73.4,73.4,100,29.79,1.5,West,5.8,-,0.00,,Mostly Cloudy,260,2013-06-27 08:26:00
3:33 AM,73.4,73.4,100,29.79,2.0,WSW,6.9,-,0.00,,Scattered Clouds,250,2013-06-27 08:33:00
3:44 AM,73.4,73.4,100,29.79,2.0,West,5.8,-,0.00,,Mostly Cloudy,260,2013-06-27 08:44:00
3:51 AM,73.4,73.4,100,29.79,1.8,West,5.8,-,0.00,,Mostly Cloudy,260,2013-06-27 08:51:00
3:53 AM,73.9,73.0,97,29.77,1.8,West,5.8,-,0.00,,Mostly Cloudy,260,2013-06-27 08:53:00
4:47 AM,73.4,73.4,100,29.80,0.5,West,8.1,-,N/A,Fog,Fog,260,2013-06-27 09:47:00
4:51 AM,73.4,73.4,100,29.80,0.2,West,8.1,-,N/A,Fog,Fog,260,2013-06-27 09:51:00
4:53 AM,73.9,73.0,97,29.78,0.2,West,6.9,-,N/A,Fog,Fog,270,2013-06-27 09:53:00
5:01 AM,73.4,73.4,100,29.81,0.2,West,6.9,-,N/A,Fog,Fog,280,2013-06-27 10:01:00
5:53 AM,73.9,73.9,100,29.79,0.2,West,6.9,-,N/A,Fog,Fog,280,2013-06-27 10:53:00
6:37 AM,73.4,73.4,100,29.81,0.1,West,9.2,-,N/A,Fog,Fog,280,2013-06-27 11:37:00
6:53 AM,73.9,73.9,100,29.79,0.5,West,9.2,-,N/A,Fog,Fog,280,2013-06-27 11:53:00
7:10 AM,75.2,73.4,94,29.81,2.0,West,8.1,-,N/A,,Overcast,280,2013-06-27 12:10:00
7:53 AM,75.9,75.0,97,29.79,3.0,WNW,10.4,-,N/A,,Overcast,290,2013-06-27 12:53:00
8:53 AM,77.0,75.0,94,29.80,3.0,WNW,12.7,21.9,N/A,,Overcast,290,2013-06-27 13:53:00
9:29 AM,80.6,75.2,84,29.82,6.0,NW,10.4,-,N/A,,Haze,310,2013-06-27 14:29:00
9:45 AM,80.6,75.2,84,29.82,7.0,NW,11.5,-,N/A,,Scattered Clouds,310,2013-06-27 14:45:00
9:53 AM,81.0,75.0,82,29.81,7.0,NW,8.1,-,N/A,,Mostly Cloudy,310,2013-06-27 14:53:00
10:53 AM,84.0,73.9,72,29.82,10.0,NW,15.0,21.9,N/A,,Scattered Clouds,310,2013-06-27 15:53:00
11:53 AM,84.9,73.0,67,29.82,10.0,NW,10.4,20.7,N/A,,Scattered Clouds,310,2013-06-27 16:53:00
12:53 PM,87.1,71.1,59,29.83,10.0,WNW,12.7,24.2,N/A,,Partly Cloudy,300,2013-06-27 17:53:00
1:53 PM,88.0,72.0,59,29.83,10.0,WNW,16.1,21.9,N/A,,Clear,290,2013-06-27 18:53:00
2:53 PM,87.1,69.1,55,29.83,10.0,WNW,13.8,23.0,N/A,,Clear,300,2013-06-27 19:53:00
3:48 PM,89.6,69.8,52,29.84,10.0,NW,13.8,-,N/A,,Partly Cloudy,310,2013-06-27 20:48:00
3:53 PM,88.0,70.0,55,29.82,10.0,NW,12.7,-,N/A,,Partly Cloudy,310,2013-06-27 20:53:00
4:53 PM,86.0,71.1,61,29.80,10.0,West,10.4,-,N/A,,Mostly Cloudy,280,2013-06-27 21:53:00
5:53 PM,84.9,68.0,57,29.77,10.0,West,11.5,20.7,N/A,,Clear,280,2013-06-27 22:53:00
6:53 PM,82.9,70.0,65,29.75,10.0,West,11.5,-,N/A,,Clear,260,2013-06-27 23:53:00
7:53 PM,80.1,69.1,69,29.75,10.0,West,9.2,-,N/A,,Clear,270,2013-06-28 00:53:00
8:53 PM,75.9,68.0,76,29.73,10.0,West,6.9,-,N/A,,Clear,270,2013-06-28 01:53:00
9:53 PM,73.9,69.1,85,29.75,10.0,West,8.1,-,N/A,,Clear,280,2013-06-28 02:53:00
10:53 PM,72.0,68.0,87,29.77,10.0,West,6.9,-,N/A,,Clear,270,2013-06-28 03:53:00
11:53 PM,71.1,68.0,90,29.79,10.0,West,8.1,-,N/A,,Clear,260,2013-06-28 04:53:00